{"data":{"norad_id":59936,"intl_designator":"2024-106Q","name":"STARLINK-31962","alt_names":[],"object_type":"PAYLOAD","status":"ACTIVE","operator":null,"country":"US","launch_date":"2024-06-01","launch_site_code":"AFETR","launch_vehicle":null,"mission":null,"orbit_class":"UNKNOWN","rcs_meters":null,"size_class":null,"mass_kg":null,"dimensions":null,"purposes":["comms"],"wikipedia_slug":null,"has_3d_model":false,"image_url":null,"decayed_at":null,"tle_current":{"epoch":"2026-05-25T00:34:48.524736Z","epoch_age_seconds":70179,"freshness":"FRESH","line1":"1 59936U 24106Q   26145.02417274  .00004016  00000+0  15545-3 0  9993","line2":"2 59936  43.0006 261.7274 0001020 282.8770  77.1968 15.27562260112191","mean_motion":15.2756226,"eccentricity":0.000102,"inclination_deg":43.0006,"raan_deg":261.7274,"arg_perigee_deg":282.877,"mean_anomaly_deg":77.1968,"bstar":0.00015545,"rev_number":11219,"period_min":94.26784345929,"perigee_km":482.40237009558,"apogee_km":483.80206289575,"semimajor_km":6861.2392164957,"source":"CELESTRAK","updated_at":"2026-05-25T13:38:19.124505Z"}}}